| time (UTC) | temp F | wind direction | speed knots | gust knots | rain 1hr in | rain 24hr in | rain mn in | humidity % | barometer mb |
| 20260502210737 | 42 | 354 | 0.9 | 0.9 | 0.00 | 0.00 | 0.00 | 54 | 1015.3 |
| 20260502210235 | 43 | 49 | 1.7 | 2.6 | 0.00 | 0.00 | 0.00 | 51 | 1015.4 |
| 20260502205732 | 43 | 299 | 0.0 | 1.7 | 0.00 | 0.00 | 0.00 | 51 | 1015.3 |
| 20260502205227 | 44 | 344 | 0.0 | 2.6 | 0.00 | 0.00 | 0.00 | 51 | 1015.2 |
| 20260502204725 | 44 | 342 | 0.0 | 1.7 | 0.00 | 0.00 | 0.00 | 53 | 1015.5 |
| 20260502204222 | 44 | 45 | 0.0 | 2.6 | 0.00 | 0.00 | 0.00 | 50 | 1015.2 |
| 20260502203720 | 45 | 114 | 0.0 | 0.9 | 0.00 | 0.00 | 0.00 | 57 | 1015.3 |
| 20260502203218 | 45 | 21 | 1.7 | 3.5 | 0.00 | 0.00 | 0.00 | 50 | 1015.1 |
| 20260502202711 | 44 | 99 | 0.0 | 1.7 | 0.00 | 0.00 | 0.00 | 54 | 1015.3 |
| 20260502202210 | 44 | 78 | 0.0 | 0.9 | 0.00 | 0.00 | 0.00 | 50 | 1015.3 |
| 20260502201707 | 44 | 224 | 0.0 | 0.9 | 0.00 | 0.00 | 0.00 | 51 | 1015.6 |
| 20260502201204 | 45 | 103 | 0.9 | 1.7 | 0.00 | 0.00 | 0.00 | 51 | 1015.4 |
| 20260502200659 | 45 | 345 | 0.0 | 1.7 | 0.00 | 0.00 | 0.00 | 50 | 1015.4 |
| 20260502200156 | 45 | 196 | 0.9 | 1.7 | 0.00 | 0.00 | 0.00 | 52 | 1015.6 |
| 20260502195655 | 44 | 163 | 0.0 | 0.9 | 0.00 | 0.00 | 0.00 | 56 | 1015.4 |
| 20260502195150 | 44 | 70 | 0.0 | 0.9 | 0.00 | 0.00 | 0.00 | 52 | 1015.6 |
| 20260502194647 | 43 | 215 | 0.0 | 0.9 | 0.00 | 0.00 | 0.00 | 54 | 1015.6 |
| 20260502194144 | 43 | 7 | 0.0 | 1.7 | 0.00 | 0.00 | 0.00 | 56 | 1015.7 |
| 20260502193641 | 44 | 71 | 0.0 | 0.0 | 0.00 | 0.00 | 0.00 | 51 | 1015.7 |
| 20260502193138 | 43 | 57 | 0.9 | 0.9 | 0.00 | 0.00 | 0.00 | 53 | 1015.8 |
| 20260502192633 | 43 | 13 | 0.0 | 0.0 | 0.00 | 0.00 | 0.00 | 52 | 1015.9 |
| 20260502192131 | 43 | 135 | 0.9 | 1.7 | 0.00 | 0.00 | 0.00 | 53 | 1015.9 |
| 20260502191627 | 43 | 59 | 0.0 | 0.9 | 0.00 | 0.00 | 0.00 | 55 | 1015.9 |
| 20260502191125 | 44 | 54 | 0.0 | 0.9 | 0.00 | 0.00 | 0.00 | 56 | 1016.2 |
| 20260502190622 | 43 | 104 | 1.7 | 1.7 | 0.00 | 0.00 | 0.00 | 58 | 1016.2 |
| 20260502190120 | 44 | 60 | 0.0 | 0.0 | 0.00 | 0.00 | 0.00 | 51 | 1016.3 |
| 20260502185614 | 44 | 18 | 0.0 | 0.0 | 0.00 | 0.00 | 0.00 | 58 | 1016.0 |
| 20260502185111 | 44 | 52 | 0.0 | 2.6 | 0.00 | 0.00 | 0.00 | 53 | 1016.2 |
| 20260502184608 | 44 | 77 | 0.0 | 0.9 | 0.00 | 0.00 | 0.00 | 55 | 1016.2 |
| 20260502184103 | 43 | 101 | 0.0 | 0.9 | 0.00 | 0.00 | 0.00 | 54 | 1016.2 |
| 20260502183559 | 43 | 3 | 0.0 | 1.7 | 0.00 | 0.00 | 0.00 | 56 | 1016.3 |
| 20260502183056 | 44 | 39 | 0.9 | 0.9 | 0.00 | 0.00 | 0.00 | 54 | 1016.4 |
| 20260502182551 | 44 | 42 | 0.0 | 1.7 | 0.00 | 0.00 | 0.00 | 52 | 1016.3 |
| 20260502182047 | 44 | 16 | 0.9 | 1.7 | 0.00 | 0.00 | 0.00 | 58 | 1016.5 |
| 20260502181545 | 46 | 47 | 0.9 | 1.7 | 0.00 | 0.00 | 0.00 | 54 | 1016.4 |
| 20260502181044 | 44 | 53 | 0.0 | 2.6 | 0.00 | 0.00 | 0.00 | 59 | 1016.5 |
| 20260502180540 | 44 | 55 | 0.9 | 0.9 | 0.00 | 0.00 | 0.00 | 57 | 1016.6 |
| 20260502170459 | 44 | 53 | 0.0 | 0.9 | 0.00 | 0.00 | 0.00 | 57 | 1016.5 |
| 20260502163943 | 41 | 93 | 0.0 | 0.9 | 0.00 | 0.00 | 0.00 | 63 | 1016.7 |
| 20260502163438 | 42 | 52 | 0.0 | 0.9 | 0.00 | 0.00 | 0.00 | 63 | 1016.7 |
| 20260502162936 | 41 | 352 | 0.9 | 0.9 | 0.00 | 0.00 | 0.00 | 62 | 1016.7 |
| 20260502162433 | 42 | 359 | 0.0 | 0.0 | 0.00 | 0.00 | 0.00 | 64 | 1016.7 |
| 20260502161930 | 42 | 34 | 0.9 | 0.9 | 0.00 | 0.00 | 0.00 | 63 | 1016.9 |
| 20260502161426 | 43 | 97 | 0.0 | 2.6 | 0.00 | 0.00 | 0.00 | 61 | 1017.0 |
| 20260502160924 | 44 | 99 | 0.0 | 1.7 | 0.00 | 0.00 | 0.00 | 59 | 1016.8 |
| 20260502160422 | 42 | 51 | 0.9 | 0.9 | 0.00 | 0.00 | 0.00 | 64 | 1016.9 |
| 20260502151901 | 44 | 44 | 0.0 | 2.6 | 0.00 | 0.00 | 0.00 | 62 | 1016.9 |
| 20260502151357 | 44 | 9 | 0.0 | 1.7 | 0.00 | 0.00 | 0.00 | 61 | 1016.9 |
| 20260502150855 | 44 | 344 | 0.0 | 0.0 | 0.00 | 0.00 | 0.00 | 60 | 1016.8 |
| 20260502150351 | 43 | 69 | 0.9 | 1.7 | 0.00 | 0.00 | 0.00 | 66 | 1016.7 |
| 20260502130739 | 38 | 91 | 0.9 | 1.7 | 0.00 | 0.00 | 0.00 | 87 | 1016.5 |
| 20260502130237 | 38 | 41 | 0.0 | 0.9 | 0.00 | 0.00 | 0.00 | 85 | 1016.6 |
| 20260502123723 | 36 | 12 | 0.9 | 0.9 | 0.00 | 0.00 | 0.00 | 88 | 1016.7 |
| 20260502123219 | 36 | 285 | 0.0 | 0.0 | 0.00 | 0.00 | 0.00 | 89 | 1016.8 |
| 20260502122716 | 36 | 357 | 0.0 | 0.0 | 0.00 | 0.00 | 0.00 | 90 | 1016.6 |
| 20260502122212 | 37 | 3 | 0.0 | 0.0 | 0.00 | 0.00 | 0.00 | 90 | 1016.7 |
| 20260502121711 | 36 | 39 | 0.9 | 1.7 | 0.00 | 0.00 | 0.00 | 90 | 1016.7 |
| 20260502121208 | 36 | 63 | 0.0 | 0.0 | 0.00 | 0.00 | 0.00 | 91 | 1016.6 |
| 20260502120704 | 35 | 103 | 0.0 | 0.0 | 0.00 | 0.00 | 0.00 | 92 | 1016.6 |
| 20260502120201 | 35 | 62 | 0.0 | 0.0 | 0.00 | 0.00 | 0.00 | 93 | 1016.7 |
| 20260502115659 | 35 | 34 | 0.0 | 0.9 | 0.00 | 0.00 | 0.00 | 94 | 1016.8 |
| 20260502115155 | 35 | 5 | 0.0 | 0.0 | 0.00 | 0.00 | 0.00 | 94 | 1016.6 |
| 20260502114651 | 34 | 321 | 0.0 | 0.0 | 0.00 | 0.00 | 0.00 | 94 | 1016.6 |
| 20260502114149 | 34 | 321 | 0.0 | 0.0 | 0.00 | 0.00 | 0.00 | 95 | 1016.7 |
| 20260502113646 | 34 | 325 | 0.0 | 0.9 | 0.00 | 0.00 | 0.00 | 95 | 1016.7 |
| 20260502113144 | 34 | 7 | 0.0 | 0.0 | 0.00 | 0.00 | 0.00 | 95 | 1016.6 |
| 20260502112642 | 34 | 30 | 0.0 | 0.0 | 0.00 | 0.00 | 0.00 | 95 | 1016.4 |
| 20260502112139 | 34 | 33 | 0.0 | 0.0 | 0.00 | 0.00 | 0.00 | 95 | 1016.6 |
| 20260502111636 | 34 | 33 | 0.0 | 0.9 | 0.00 | 0.00 | 0.00 | 96 | 1016.8 |
| 20260502111134 | 34 | 22 | 0.0 | 0.0 | 0.00 | 0.00 | 0.00 | 97 | 1016.9 |
| 20260502110631 | 34 | 20 | 0.0 | 0.0 | 0.00 | 0.00 | 0.00 | 97 | 1016.9 |
| 20260502110128 | 33 | 20 | 0.0 | 0.0 | 0.00 | 0.00 | 0.00 | 97 | 1017.1 |
| 20260502105626 | 33 | 20 | 0.0 | 0.0 | 0.00 | 0.00 | 0.00 | 97 | 1017.0 |
| 20260502105123 | 33 | 20 | 0.0 | 0.0 | 0.00 | 0.00 | 0.00 | 97 | 1016.9 |
| 20260502104620 | 33 | 20 | 0.0 | 0.0 | 0.00 | 0.00 | 0.00 | 97 | 1016.9 |
| 20260502104117 | 33 | 20 | 0.0 | 0.0 | 0.00 | 0.00 | 0.00 | 97 | 1016.8 |
| 20260502103615 | 33 | 20 | 0.0 | 0.0 | 0.00 | 0.00 | 0.00 | 97 | 1016.7 |
| 20260502103113 | 33 | 21 | 0.0 | 0.0 | 0.00 | 0.00 | 0.00 | 97 | 1016.9 |
| 20260502102609 | 33 | 20 | 0.0 | 0.0 | 0.00 | 0.00 | 0.00 | 97 | 1016.8 |
| 20260502102106 | 33 | 21 | 0.0 | 0.0 | 0.00 | 0.00 | 0.00 | 97 | 1017.0 |
| 20260502101604 | 33 | 21 | 0.0 | 0.0 | 0.00 | 0.00 | 0.00 | 97 | 1016.9 |
| 20260502101102 | 33 | 21 | 0.0 | 0.0 | 0.00 | 0.00 | 0.00 | 97 | 1016.9 |
| 20260502100600 | 33 | 21 | 0.0 | 0.0 | 0.00 | 0.00 | 0.00 | 98 | 1017.0 |
| 20260502091032 | 33 | 21 | 0.0 | 0.0 | 0.00 | 0.00 | 0.00 | 98 | 1016.8 |
| 20260502090529 | 33 | 21 | 0.0 | 0.0 | 0.00 | 0.00 | 0.00 | 99 | 1016.6 |
| 20260502071424 | 35 | 16 | 0.0 | 0.0 | 0.00 | 0.00 | 0.00 | 97 | 1016.4 |
| 20260502070922 | 34 | 14 | 0.0 | 0.0 | 0.00 | 0.00 | 0.00 | 97 | 1016.6 |
| 20260502070420 | 34 | 16 | 0.0 | 0.0 | 0.00 | 0.00 | 0.00 | 97 | 1016.6 |
| 20260502065918 | 34 | 16 | 0.0 | 0.0 | 0.00 | 0.00 | 0.00 | 96 | 1016.6 |
| 20260502065416 | 34 | 16 | 0.0 | 0.0 | 0.00 | 0.00 | 0.00 | 96 | 1016.6 |
| 20260502064914 | 34 | 14 | 0.0 | 0.9 | 0.00 | 0.00 | 0.00 | 96 | 1016.7 |
| 20260502064411 | 34 | 337 | 0.0 | 0.0 | 0.00 | 0.00 | 0.00 | 97 | 1016.6 |
| 20260502063908 | 34 | 349 | 0.0 | 0.9 | 0.00 | 0.00 | 0.00 | 97 | 1016.7 |
| 20260502063406 | 34 | 301 | 0.0 | 0.0 | 0.00 | 0.00 | 0.00 | 97 | 1016.7 |
| 20260502062903 | 34 | 299 | 0.0 | 0.0 | 0.00 | 0.00 | 0.00 | 97 | 1016.6 |
| 20260502062401 | 34 | 326 | 0.0 | 0.9 | 0.00 | 0.00 | 0.00 | 97 | 1016.7 |
| 20260502061859 | 34 | 352 | 0.0 | 0.0 | 0.00 | 0.00 | 0.00 | 97 | 1016.7 |
| 20260502061357 | 35 | 355 | 0.0 | 0.0 | 0.00 | 0.00 | 0.00 | 97 | 1016.6 |
| 20260502060852 | 35 | 22 | 0.0 | 0.0 | 0.00 | 0.00 | 0.00 | 97 | 1016.7 |
| 20260502060347 | 35 | 9 | 0.0 | 0.0 | 0.00 | 0.00 | 0.00 | 97 | 1016.9 |
| 20260502055845 | 35 | 13 | 0.0 | 0.0 | 0.00 | 0.00 | 0.00 | 97 | 1016.9 |
| 20260502055343 | 35 | 15 | 0.0 | 0.0 | 0.00 | 0.00 | 0.00 | 98 | 1016.9 |
| 20260502054842 | 35 | 0 | 0.0 | 0.0 | 0.00 | 0.00 | 0.00 | 98 | 1016.9 |
| 20260502054339 | 35 | 355 | 0.0 | 0.0 | 0.00 | 0.00 | 0.00 | 98 | 1016.9 |
| 20260502053837 | 35 | 9 | 0.0 | 0.0 | 0.00 | 0.00 | 0.00 | 98 | 1017.0 |
| 20260502053334 | 35 | 30 | 0.0 | 0.0 | 0.00 | 0.00 | 0.00 | 98 | 1017.0 |
| 20260502052831 | 35 | 33 | 0.0 | 0.0 | 0.00 | 0.00 | 0.00 | 98 | 1017.1 |
| 20260502052329 | 35 | 33 | 0.0 | 0.0 | 0.00 | 0.00 | 0.00 | 98 | 1017.5 |
| 20260502051827 | 36 | 11 | 0.0 | 0.0 | 0.00 | 0.00 | 0.00 | 97 | 1017.5 |
| 20260502051326 | 36 | 18 | 0.0 | 0.0 | 0.00 | 0.00 | 0.00 | 98 | 1017.1 |
| 20260502050821 | 36 | 355 | 0.0 | 0.0 | 0.00 | 0.00 | 0.00 | 98 | 1017.0 |
| 20260502050318 | 36 | 43 | 0.0 | 0.0 | 0.00 | 0.00 | 0.00 | 98 | 1017.1 |
| 20260502045815 | 36 | 19 | 0.0 | 0.0 | 0.00 | 0.00 | 0.00 | 98 | 1016.8 |
| 20260502045312 | 37 | 88 | 0.0 | 0.0 | 0.00 | 0.00 | 0.00 | 99 | 1017.0 |
| 20260502044809 | 37 | 112 | 0.0 | 0.0 | 0.00 | 0.00 | 0.00 | 99 | 1017.0 |
| 20260502044305 | 37 | 100 | 0.0 | 0.0 | 0.00 | 0.00 | 0.00 | 99 | 1016.8 |
| 20260502043802 | 37 | 23 | 0.0 | 0.0 | 0.00 | 0.00 | 0.00 | 98 | 1016.7 |
| 20260502043259 | 37 | 322 | 0.9 | 0.9 | 0.00 | 0.00 | 0.00 | 98 | 1016.6 |
| 20260502042759 | 38 | 327 | 0.9 | 1.7 | 0.00 | 0.00 | 0.00 | 99 | 1016.7 |
| 20260502042256 | 38 | 212 | 0.0 | 1.7 | 0.00 | 0.00 | 0.00 | 99 | 1016.6 |
| 20260502041754 | 38 | 130 | 0.0 | 0.0 | 0.00 | 0.00 | 0.00 | 99 | 1016.7 |
| 20260502041251 | 38 | 143 | 0.0 | 0.0 | 0.00 | 0.00 | 0.00 | 99 | 1016.6 |
| 20260502040748 | 38 | 18 | 0.0 | 0.0 | 0.00 | 0.00 | 0.00 | 99 | 1016.8 |
| 20260502040245 | 38 | 87 | 0.0 | 0.0 | 0.00 | 0.05 | 0.05 | 99 | 1017.0 |
| 20260502035741 | 38 | 97 | 0.0 | 0.0 | 0.00 | 0.05 | 0.05 | 99 | 1016.8 |
| 20260502035238 | 38 | 16 | 0.0 | 0.0 | 0.00 | 0.05 | 0.05 | 99 | 1016.6 |
| 20260502034735 | 39 | 35 | 0.0 | 0.0 | 0.00 | 0.05 | 0.05 | 99 | 1016.5 |
| 20260502034233 | 38 | 1 | 0.0 | 0.0 | 0.00 | 0.05 | 0.05 | 99 | 1016.7 |
| 20260502033731 | 39 | 44 | 0.0 | 0.0 | 0.00 | 0.05 | 0.05 | 99 | 1016.5 |
| 20260502033229 | 39 | 332 | 0.0 | 0.0 | 0.00 | 0.05 | 0.05 | 99 | 1016.7 |
| 20260502032725 | 39 | 36 | 0.0 | 0.0 | 0.00 | 0.05 | 0.05 | 99 | 1016.8 |
| 20260502032221 | 39 | 126 | 0.0 | 0.0 | 0.00 | 0.05 | 0.05 | 99 | 1016.8 |
| 20260502031719 | 39 | 107 | 0.0 | 0.0 | 0.00 | 0.05 | 0.05 | 99 | 1016.8 |
| 20260502031217 | 40 | 90 | 0.0 | 0.0 | 0.05 | 0.05 | 0.05 | 99 | 1016.8 |
| 20260502030716 | 40 | 106 | 0.0 | 0.0 | 0.12 | 0.05 | 0.05 | 99 | 1016.5 |
| 20260502030214 | 40 | 95 | 0.0 | 0.0 | 0.07 | 0.04 | 0.04 | 99 | 1016.6 |
| 20260502025710 | 40 | 32 | 0.0 | 0.0 | 0.00 | 0.03 | 0.03 | 99 | 1016.3 |
| 20260502025208 | 40 | 30 | 0.0 | 0.0 | 0.00 | 0.03 | 0.03 | 99 | 1016.4 |
| 20260502024705 | 40 | 20 | 0.0 | 0.0 | 0.00 | 0.03 | 0.03 | 99 | 1016.4 |
| 20260502024204 | 40 | 40 | 0.0 | 0.0 | 0.00 | 0.03 | 0.03 | 98 | 1016.5 |
| 20260502023701 | 40 | 40 | 0.0 | 0.0 | 0.00 | 0.03 | 0.03 | 98 | 1016.3 |
| 20260502023158 | 39 | 41 | 0.0 | 0.0 | 0.00 | 0.03 | 0.03 | 98 | 1016.6 |
| 20260502022655 | 39 | 40 | 0.0 | 0.0 | 0.00 | 0.03 | 0.03 | 98 | 1016.5 |
| 20260502022152 | 40 | 45 | 0.0 | 0.0 | 0.00 | 0.03 | 0.03 | 99 | 1016.5 |
| 20260502021650 | 40 | 99 | 0.0 | 0.0 | 0.00 | 0.03 | 0.03 | 99 | 1016.6 |
| 20260502021147 | 40 | 105 | 0.0 | 0.0 | 0.00 | 0.03 | 0.03 | 99 | 1016.7 |
| 20260502020644 | 39 | 74 | 0.0 | 0.0 | 0.00 | 0.03 | 0.03 | 98 | 1016.7 |
| 20260502020140 | 40 | 59 | 0.0 | 0.0 | 0.00 | 0.03 | 0.03 | 98 | 1016.4 |
| 20260502015639 | 39 | 60 | 0.0 | 0.0 | 0.00 | 0.03 | 0.03 | 98 | 1016.3 |
| 20260502015134 | 39 | 59 | 0.0 | 0.0 | 0.00 | 0.03 | 0.03 | 98 | 1016.2 |
| 20260502014632 | 39 | 60 | 0.0 | 0.0 | 0.00 | 0.03 | 0.03 | 98 | 1016.3 |
| 20260502014129 | 39 | 60 | 0.0 | 0.0 | 0.05 | 0.03 | 0.03 | 98 | 1016.3 |
| 20260502013625 | 39 | 63 | 0.0 | 0.0 | 0.00 | 0.02 | 0.02 | 97 | 1015.9 |
| 20260502013120 | 39 | 63 | 0.0 | 0.0 | 0.00 | 0.02 | 0.02 | 97 | 1016.2 |
| 20260502012618 | 40 | 72 | 0.0 | 0.0 | 0.00 | 0.02 | 0.02 | 97 | 1015.9 |
| 20260502012117 | 40 | 56 | 0.0 | 0.0 | 0.00 | 0.02 | 0.02 | 97 | 1016.3 |
| 20260502011613 | 40 | 80 | 0.0 | 0.0 | 0.00 | 0.02 | 0.02 | 96 | 1016.5 |
| 20260502011108 | 40 | 4 | 0.0 | 0.0 | 0.07 | 0.02 | 0.02 | 96 | 1016.3 |
| 20260502010606 | 40 | 355 | 0.0 | 0.0 | 0.12 | 0.02 | 0.02 | 95 | 1016.2 |
| 20260502005600 | 40 | 12 | 0.0 | 0.0 | 0.00 | 0.00 | 0.00 | 94 | 1016.3 |
| 20260502005058 | 41 | 60 | 0.0 | 0.0 | 0.00 | 0.00 | 0.00 | 93 | 1016.2 |
| 20260502004559 | 41 | 78 | 0.0 | 0.0 | 0.00 | 0.00 | 0.00 | 93 | 1015.9 |
| 20260502004056 | 41 | 19 | 0.0 | 0.0 | 0.00 | 0.00 | 0.00 | 92 | 1015.4 |
| 20260502003554 | 42 | 82 | 0.9 | 0.9 | 0.00 | 0.00 | 0.00 | 91 | 1015.3 |
| 20260502003050 | 42 | 147 | 0.0 | 0.9 | 0.00 | 0.00 | 0.00 | 91 | 1015.1 |
| 20260502002547 | 43 | 325 | 0.9 | 0.9 | 0.00 | 0.00 | 0.00 | 89 | 1014.8 |
| 20260502002044 | 44 | 80 | 0.0 | 0.9 | 0.00 | 0.00 | 0.00 | 84 | 1015.1 |
| 20260502001542 | 44 | 59 | 0.0 | 0.0 | 0.00 | 0.00 | 0.00 | 85 | 1014.6 |
| 20260502001039 | 44 | 16 | 0.0 | 0.0 | 0.00 | 0.00 | 0.00 | 85 | 1014.6 |
| 20260502000537 | 44 | 0 | 0.0 | 0.9 | 0.00 | 0.00 | 0.00 | 85 | 1014.8 |
| 20260502000034 | 44 | 52 | 0.0 | 1.7 | 0.00 | 0.00 | 0.00 | 85 | 1014.7 |
| 20260501235529 | 44 | 357 | 0.0 | 0.9 | 0.00 | 0.00 | 0.00 | 84 | 1014.8 |
| 20260501235025 | 44 | 0 | 0.0 | 0.0 | 0.00 | 0.00 | 0.00 | 84 | 1014.7 |
| 20260501234521 | 45 | 334 | 0.0 | 0.0 | 0.00 | 0.00 | 0.00 | 83 | 1014.8 |
| 20260501234020 | 45 | 316 | 0.0 | 0.0 | 0.00 | 0.00 | 0.00 | 83 | 1014.5 |
| 20260501233517 | 45 | 330 | 0.9 | 0.9 | 0.00 | 0.00 | 0.00 | 83 | 1014.5 |
| 20260501233014 | 45 | 34 | 0.0 | 0.9 | 0.00 | 0.00 | 0.00 | 81 | 1014.5 |
| 20260501232510 | 46 | 24 | 0.0 | 0.0 | 0.00 | 0.00 | 0.00 | 80 | 1014.6 |
| 20260501232008 | 46 | 357 | 0.0 | 0.9 | 0.00 | 0.00 | 0.00 | 77 | 1014.3 |
| 20260501231505 | 47 | 106 | 0.0 | 0.9 | 0.00 | 0.00 | 0.00 | 74 | 1014.5 |
| 20260501231003 | 47 | 17 | 0.9 | 0.9 | 0.00 | 0.00 | 0.00 | 73 | 1014.5 |
| 20260501230502 | 47 | 63 | 0.0 | 0.0 | 0.00 | 0.00 | 0.00 | 71 | 1014.3 |
| 20260501225959 | 47 | 107 | 0.0 | 0.9 | 0.00 | 0.00 | 0.00 | 72 | 1014.4 |
| 20260501225457 | 48 | 20 | 0.9 | 1.7 | 0.00 | 0.00 | 0.00 | 68 | 1013.7 |
| 20260501224952 | 48 | 353 | 0.0 | 0.9 | 0.00 | 0.00 | 0.00 | 67 | 1014.0 |
| 20260501224450 | 49 | 80 | 0.9 | 1.7 | 0.00 | 0.00 | 0.00 | 64 | 1014.1 |
| 20260501223947 | 49 | 338 | 0.0 | 0.9 | 0.00 | 0.00 | 0.00 | 62 | 1014.3 |
| 20260501223443 | 50 | 106 | 0.0 | 2.6 | 0.00 | 0.00 | 0.00 | 59 | 1014.0 |
| 20260501222938 | 50 | 61 | 0.0 | 0.0 | 0.00 | 0.00 | 0.00 | 58 | 1013.7 |
| 20260501222436 | 51 | 348 | 0.9 | 1.7 | 0.00 | 0.00 | 0.00 | 52 | 1013.9 |
| 20260501221932 | 51 | 90 | 0.0 | 0.0 | 0.00 | 0.00 | 0.00 | 53 | 1013.5 |
| 20260501221430 | 51 | 59 | 0.0 | 0.9 | 0.00 | 0.00 | 0.00 | 51 | 1013.5 |
| 20260501220927 | 52 | 31 | 0.0 | 0.9 | 0.00 | 0.00 | 0.00 | 52 | 1013.5 |
| 20260501220425 | 52 | 84 | 0.0 | 0.9 | 0.00 | 0.00 | 0.00 | 53 | 1013.5 |
| 20260501215921 | 53 | 19 | 0.0 | 0.9 | 0.00 | 0.00 | 0.00 | 47 | 1013.7 |
| 20260501215418 | 53 | 334 | 1.7 | 2.6 | 0.00 | 0.00 | 0.00 | 45 | 1013.2 |
| 20260501214913 | 54 | 39 | 0.0 | 0.9 | 0.00 | 0.00 | 0.00 | 46 | 1013.4 |
| 20260501214408 | 54 | 36 | 0.0 | 0.0 | 0.00 | 0.00 | 0.00 | 47 | 1013.3 |
| 20260501213904 | 54 | 67 | 0.0 | 0.0 | 0.00 | 0.00 | 0.00 | 43 | 1013.2 |
| 20260501213401 | 54 | 15 | 1.7 | 1.7 | 0.00 | 0.00 | 0.00 | 43 | 1013.0 |
| 20260501212857 | 53 | 125 | 0.0 | 0.9 | 0.00 | 0.00 | 0.00 | 49 | 1013.1 |
| 20260501212354 | 53 | 46 | 0.9 | 0.9 | 0.00 | 0.00 | 0.00 | 48 | 1013.0 |
| 20260501211851 | 54 | 19 | 0.0 | 0.9 | 0.00 | 0.00 | 0.00 | 45 | 1013.1 |
| 20260501211348 | 54 | 72 | 0.0 | 0.9 | 0.00 | 0.00 | 0.00 | 45 | 1012.9 |